This is the latest recevied weather packets stored in our database for station/object OH6GKW. If no packets are shown the sender has not sent any weather packets the latest 1 day(s).
| Time | Temp. | Humidity | Pressure | Rain* | Wind** | Luminosity | Snow |
|---|---|---|---|---|---|---|---|
| 1778010825 | 4.44° C | 65% | 1000.4 hPa | 0.51 mm | 0.45 m/s, 227° | 0 W/m² | - |
| 1778010516 | 5° C | 63% | 1000.4 hPa | 0.51 mm | 0.45 m/s, 230° | 0 W/m² | - |
| 1778010209 | 5° C | 62% | 1000.4 hPa | 0.51 mm | 0.89 m/s, 248° | 0 W/m² | - |
| 1778009921 | 5° C | 61% | 1000.4 hPa | 0.51 mm | 0.89 m/s, 251° | 0 W/m² | - |
| 1778009616 | 5° C | 59% | 1000.4 hPa | 0.51 mm | 0.89 m/s, 279° | 0 W/m² | - |
| 1778009327 | 5.56° C | 57% | 1000.2 hPa | 0.51 mm | 0.89 m/s, 250° | 0 W/m² | - |
| 1778009020 | 5.56° C | 56% | 1000.2 hPa | 0.51 mm | 1.34 m/s, 247° | 0 W/m² | - |
| 1778008712 | 5.56° C | 55% | 1000.2 hPa | 0.51 mm | 1.34 m/s, 247° | 0 W/m² | - |
| 1778008437 | 5.56° C | 55% | 1000.2 hPa | 0.51 mm | 1.34 m/s, 227° | 0 W/m² | - |
| 1778008111 | 6.11° C | 54% | 1000.2 hPa | 0.51 mm | 1.34 m/s, 268° | 0 W/m² | - |
| 1778007824 | 6.11° C | 54% | 1000.2 hPa | 0.51 mm | 1.79 m/s, 271° | 0 W/m² | - |
| 1778007511 | 6.11° C | 53% | 1000.1 hPa | 0.51 mm | 2.24 m/s, 255° | 5 W/m² | - |
| 1778007223 | 6.11° C | 53% | 1000.1 hPa | 0.51 mm | 2.24 m/s, 279° | 5 W/m² | - |
| 1778006915 | 6.11° C | 53% | 1000.1 hPa | 0.51 mm | 2.24 m/s, 230° | 7 W/m² | - |
| 1778006639 | 6.67° C | 52% | 999.8 hPa | 0.51 mm | 1.79 m/s, 259° | 11 W/m² | - |
| 1778006338 | 6.67° C | 52% | 999.8 hPa | 0.51 mm | 1.79 m/s, 261° | 12 W/m² | - |
| 1778006032 | 6.67° C | 51% | 999.8 hPa | 0.51 mm | 1.79 m/s, 298° | 19 W/m² | - |
| 1778005721 | 6.67° C | 51% | 999.6 hPa | 0.51 mm | 1.79 m/s, 248° | 25 W/m² | - |
| 1778005411 | 7.22° C | 50% | 999.6 hPa | 0.51 mm | 1.34 m/s, 227° | 37 W/m² | - |
| 1778005127 | 7.22° C | 50% | 999.6 hPa | 0.51 mm | 1.34 m/s, 227° | 46 W/m² | - |
| 1778004816 | 7.22° C | 49% | 999.6 hPa | 0.51 mm | 1.34 m/s, 255° | 55 W/m² | - |
| 1778004522 | 7.22° C | 50% | 999.6 hPa | 0.51 mm | 1.34 m/s, 202° | 62 W/m² | - |
| 1778003937 | 7.22° C | 50% | 999.4 hPa | 0.51 mm | 1.79 m/s, 261° | 91 W/m² | - |
| 1778003632 | 7.22° C | 50% | 999.4 hPa | 0.51 mm | 1.34 m/s, 248° | 51 W/m² | - |
| 1778003323 | 7.78° C | 50% | 999.4 hPa | 0.51 mm | 1.34 m/s, 240° | 55 W/m² | - |
* Rain since midnight (hover to see other rain measurements)
** Current wind speed in m/s (hover to see current wind gust speed)